Location: Breungeshain
(50.5000°N, 9.2000°E)
Time: 20:45:39
(UTC+00:00)

ISS - Pass Details

Date: 25 May 2017
Orbit: 401 x 408 km, 51.6° (Epoch: 25 June)

Event Time Altitude Azimuth Distance (km) Brightness Sun altitude
Rises 23:44:45 0° 280° (W) 2,339 0.1 -18.2°
Reaches altitude 10° 23:46:51 10° 282° (WNW) 1,476 -0.9 -18.1°
Maximum altitude 23:50:10 78° 10° (N) 422 -3.8 -18.1°
Drops below altitude 10° 23:53:27 10° 97° (E) 1,468 -1.0 -18.0°
Sets 23:55:32 0° 98° (E) 2,326 0.0 -18.0°
